Погода в Кривском

Россия / Калужская область     55°07′57″N   36°32′10″E
темп.,
°C
ветер,
м/с
пор.,
м/с
влажн.,
%
обл.,
%
осадки,
мм/ч
давл.,
гПа
погр.,
м
25 июня, сб
сб2500:00+15св248029 0.0 101765
03:00+14св22871 0.0 101815
06:00+16ссв24845 0.0 1018103
09:00+22св24598 0.0 1019655
12:00+25всв34465 0.0 10191747
15:00+27в34428 0.0 10182013
18:00+26юв235415 0.0 1018841
21:00+20сз12755 0.0 102011
26 июня, вс
вс2600:00+17ссв11870 0.0 102111
03:00+16в01890 0.0 102211
06:00+19ссв11815 0.0 102238
09:00+24с125868 0.0 1023474
12:00+28ссв124565 0.0 10221673
15:00+30ссз134041 0.0 10212241
18:00+27сз365796 0.0 1021351
21:00+23сз276998 0.0 1021132
27 июня, пн
пн2700:00+19сз22845 0.0 102226
03:00+18зсз22865 0.0 102237
06:00+20зсз26790 0.0 1022143
09:00+26сз35600 0.0 1022497
12:00+30сз46445 0.0 10211567
15:00+30сз56410 0.0 10202159
18:00+29сз374817 0.0 1019817
21:00+22с23753 0.0 102052
28 июня, вт
вт2800:00+21ссз23685 0.0 102053
03:00+18с25805 0.0 102179
06:00+19св39835 0.0 1022333
09:00+22всв45676 0.0 1022847
12:00+24св45455 0.0 10231410
15:00+25ссв45371 0.0 10221747
18:00+23ссв454280 0.0 1022885
21:00+16св38647 0.0 1024150
29 июня, ср
ср2900:00+12в23750 0.0 102553
03:00+10всв22755 0.0 102635
06:00+12св25720 0.0 1026141
09:00+18всв35470 0.0 1026987
12:00+21всв35340 0.0 10261744
15:00+23всв34310 0.0 10252072
18:00+22всв23405 0.0 10242037
21:00+15ссв22670 0.0 102521